BREEZE-M DEB, 48534

Orbit data source: Space-Track

BREEZE-M DEB, 48534 is space debris in HEO originally from a launch on Fri, 14 Mar 2008 UTC launched from the Tyuratam Missile And Space Complex (TTMTR). Debris objects in space refer to the collection of defunct objects orbiting the Earth. Examples of debris include non-operational satellites, rocket bodies, and fragments generated from explosions, collisions, or faulty payload assembly.

Loading next visibility...
Identifier
48534, 2008-011DZ
Orbit
HEO
Country
Flag of CISCIS
Related business
Manufacturer
Unknown
Mission
Spacecraft
Bus & Motor
Unknown
Mass
Unknown
Launch date (UTC)
2008-03-14 (18 years ago)
Launch vehicle
Unknown
Launch site
Tyuratam Missile And Space Complex (TTMTR)
Object type
Payload
Rocket body
Debris
Shape & HBR
Unknown shape, 0.1 m
Radar Cross Section
Medium (>0.1 m² and <1 m²)

Expand to show TLE details & history
Last TLE update: 10 months ago

TLE from 10 months ago
0 BREEZE-M DEB
1 48534U 08011DZ  25246.56931494 -.00000117  00000-0 -30575-2 0  9997
2 48534  48.3723  62.6716 6426328 234.6130  47.6942  3.01428502114330
Epoch: 2025-09-03T13:39Z
TLE epoch observation values (Epoch: 2025-09-03T13:39:48.810Z)
Latitude
0.00002°
Longitude
-125.24359°
Altitude
12,543.497 km
Speed
4.737 km/s
True Right ascension
04h 10m 36s
True Declination
0° 00' 00"
Sunlit
Object was in daylight at epoch
Visualization orbit readout
Latitude
Unknown
Longitude
Unknown
Altitude
Unknown
Speed
Unknown
Apparent Right ascension
Unknown
Apparent Declination
Unknown
Sunlit
N/A
Visualization observer readout
Local Sidereal Time
23:08:36
Azimuth
Unknown
Elevation
Unknown
Doppler factor
Unknown
Orbital elements
Apogee altitude
26,875.299 km
Perigee altitude
856.4 km
Semi-major axis
20,243.986 km
Eccentricity
0.64263
Inclination
48.3723°
RAAN
62.6716°
Arg. of periapsis
234.613°
True anomaly
125.50372°
Mean anomaly
47.6942°
Eccentric anomaly
84.33449°
Mean motion
0.75353 °/min
Orbital period
477.75 mins
BSTAR
-0.0030575
Loading maneuver chart data...
Computing Atmospheric mass density...
Loading historical data...
Loading historical data...
Loading historical data...
Loading historical data...
Loading historical data...
Loading historical data...
Loading historical data...

Documentation

Showing up to 5 results
|